Weather in Hemmet

Denmark     55°51′03″N   8°22′21″E
temp.,
°C
wind,
m/s
gust,
m/s
humid.,
%
clouds,
%
prec.,
mm/h
press.,
hPa
HPBL,
m
21 april, wed
wed2123:00+8wnw3676100 0.0 101688
02:00+7wnw4881100 0.0 1015165
05:00+6nw6119346 0.0 1015464
08:00+6nw8127839 0.0 10151166
11:00+7nw1114702 0.0 10151355
14:00+7nw1216624 0.0 10151537
17:00+7nw1319625 0.0 10151938
20:00+6nw1420716 0.1 10141617
22 april, thu
thu2223:00+5nw14207523 0.1 10141363
02:00+6nnw14187543 0.1 10151213
05:00+5nnw1318735 0.0 10161193
08:00+6nnw1317705 0.1 10171391
11:00+7nnw1214645 0.1 10191448
14:00+8nnw1214635 0.1 10201263
17:00+7nnw1214675 0.0 10201249
20:00+6nw1115735 0.0 1021972
23 april, fri
fri2323:00+6nw1117745 0.0 1022955
02:00+6nnw1016765 0.0 1022965
05:00+5nnw10157822 0.0 1023954
08:00+6nnw1014768 0.0 10241140
11:00+7nnw1011635 0.0 10251148
14:00+8nw99601 0.0 1026963
17:00+7nw810635 0.0 10261134
20:00+6nw811739 0.0 1026962
24 april, sat
sat2423:00+5nw812765 0.0 1026825
02:00+6nw913785 0.0 1026946
05:00+5nnw912737 0.0 1026723
08:00+5nne69675 0.0 1026519
11:00+8ne67375 0.0 10281341
14:00+9nnw56384 0.0 10291697
17:00+8nnw77444 0.0 10301285
20:00+6nnw67545 0.0 1030314
25 april, sun
sun2523:00+4nw35579 0.0 1030163
02:00+4wnw456994 0.0 1030232
05:00+4wnw45756 0.0 1029308
08:00+6wnw576195 0.0 10281227
11:00+7nw666166 0.0 10281217
14:00+7wnw6664100 0.0 10271131
17:00+7nw6668100 0.0 1026950
20:00+6nw5674100 0.0 1025636